Location: Marysville Observatory
(48.1092°N, 122.1645°W)
Time: 06:59:06
(UTC-08:00)

ISS - Visible Passes

Search period start: 19 January 2017 00:00
Search period end: 29 January 2017 00:00
Orbit: 399 x 410 km, 51.6° (Epoch: 20 January)

Date Brightness Start Highest point End Pass type
(mag) Time Alt. Az. Time Alt. Az. Time Alt. Az.
19 Jan -0.8 06:04:22 11° SSW 06:04:22 11° SSW 06:04:46 10° SSW visible
27 Jan -0.7 18:58:30 10° S 18:58:47 11° S 18:58:47 11° S visible
28 Jan -0.5 19:41:08 10° SW 19:41:42 14° SW 19:41:42 14° SW visible
